Saint Martin Island, Sint Maarten

5:53 AM AST on December 08, 2016 (GMT -0400)
Princess Juliana International

Weather History for TNCM - October, 2011

Change the Weather History Date:

Sunday, October 30, 2011

  Actual Average Record
Temperature  
Mean Temperature 83 °F -  
Max Temperature 88 °F 84 °F 89 °F (2001)
Min Temperature 78 °F 74 °F 75 °F (2000)
Cooling Degree Days 18    
Growing Degree Days 33 (Base 50)    
Moisture  
Dew Point 73 °F    
Average Humidity 71    
Maximum Humidity 83    
Minimum Humidity 54    
Precipitation  
Precipitation 0.16 in 0.17 in - ()
Sea Level Pressure  
Sea Level Pressure 29.94 in    
Wind  
Wind Speed 10 mph ()    
Max Wind Speed 15 mph    
Max Gust Speed 29 mph    
Visibility 6.6 miles    
Events Rain    
Averages and records for this station are not official NWS values.
T = Trace of Precipitation, MM = Missing Value Source: Averaged Metar Reports

Daily Weather History Graph

Daily Weather History Graph

Search for Another Location

Airport or City:

Trip Planner

Search our weather history database for the weather conditions in past years. The results will help you decide how hot, cold, wet, or windy it might be!

Date:

Astronomy

Oct. 30, 2011 Rise Set
Actual Time 6:10 AM AST 5:41 PM AST
Civil Twilight 5:48 AM AST 6:03 PM AST
Nautical Twilight 5:22 AM AST 6:29 PM AST
Astronomical Twilight 4:56 AM AST 6:54 PM AST
Moon 10:02 AM AST (10/30) 9:27 PM AST (10/30)
Length of Visible Light 12h 15m
Length of Day
11h 30m
Waxing Crescent, 20% of the Moon is Illuminated
Oct 30
Waxing Crescent
Nov 2
First Quarter
Nov 10
Full
Nov 18
Last Quarter
Nov 25
New

Hourly Weather History & Observations

Time (AST) Temp. Heat Index Dew Point Humidity Pressure Visibility Wind Dir Wind Speed Gust Speed Precip Events Conditions
12:00 AM 82.4 °F 87.2 °F 71.6 °F 70% 29.95 in 6.2 mi East 12.7 mph - N/A   Scattered Clouds
1:00 AM 82.4 °F 88.2 °F 73.4 °F 74% 29.95 in 6.2 mi East 9.2 mph - N/A   Scattered Clouds
2:00 AM 81 °F - 73 °F 70% 29.94 in 12 mi East 4.6 mph - - Rain Light Rain Showers
2:00 AM 80.6 °F 85.4 °F 73.4 °F 79% 29.92 in 6.2 mi East 4.6 mph - N/A   Scattered Clouds
3:00 AM 80.6 °F 85.4 °F 73.4 °F 79% 29.92 in 6.2 mi East 5.8 mph - N/A   Scattered Clouds
5:00 AM 80 °F - 73 °F 75% 29.92 in 22 mi East 8.1 mph - -   Partly Cloudy
5:00 AM 78.8 °F - 73.4 °F 83% 29.89 in 6.2 mi East 8.1 mph - N/A   Scattered Clouds
6:00 AM 80.6 °F 85.4 °F 73.4 °F 79% 29.92 in 6.2 mi ESE 5.8 mph - N/A   Scattered Clouds
7:00 AM 82.4 °F 88.2 °F 73.4 °F 74% 29.95 in 6.2 mi East 10.4 mph - N/A   Scattered Clouds
8:00 AM 83 °F - 72 °F 62% 29.97 in 28 mi ESE 13.8 mph - -   Partly Cloudy
8:00 AM 82.4 °F 87.2 °F 71.6 °F 70% 29.95 in 6.2 mi East 12.7 mph - N/A   Partly Cloudy
9:00 AM 84.2 °F 89.6 °F 71.6 °F 66% 29.98 in 6.2 mi East 11.5 mph - N/A   Partly Cloudy
10:00 AM 86.0 °F 91.8 °F 71.6 °F 62% 29.98 in 6.2 mi East 13.8 mph - N/A   Scattered Clouds
11:00 AM 86.0 °F 91.8 °F 71.6 °F 62% 29.98 in 6.2 mi East 13.8 mph - N/A   Scattered Clouds
12:00 PM 86.0 °F 93.4 °F 73.4 °F 66% 29.95 in 6.2 mi East 15.0 mph - N/A   Scattered Clouds
1:00 PM 86.0 °F 91.8 °F 71.6 °F 62% 29.92 in - ESE 13.8 mph - N/A   Scattered Clouds
2:00 PM 87 °F - 73 °F 54% 29.93 in 28 mi East 13.8 mph - -   Partly Cloudy
2:00 PM 86.0 °F 93.4 °F 73.4 °F 66% 29.92 in 6.2 mi East 13.8 mph - N/A   Scattered Clouds
3:00 PM 86.0 °F 93.4 °F 73.4 °F 66% 29.92 in 6.2 mi ENE 13.8 mph - N/A   Mostly Cloudy
4:00 PM 86.0 °F 93.4 °F 73.4 °F 66% 29.92 in 6.2 mi East 11.5 mph - N/A   Scattered Clouds
5:00 PM 84 °F - 74 °F 64% 29.93 in 28 mi East 12.7 mph - -   Scattered Clouds
5:00 PM 84.2 °F 90.9 °F 73.4 °F 70% 29.92 in 6.2 mi East 12.7 mph - N/A   Partly Cloudy
6:00 PM 82.4 °F 88.2 °F 73.4 °F 74% 29.92 in 6.2 mi East 13.8 mph - N/A   Partly Cloudy
7:00 PM 82.4 °F 88.2 °F 73.4 °F 74% 29.92 in 6.2 mi East 15.0 mph - N/A   Partly Cloudy
8:00 PM 82 °F - 74 °F 69% 29.95 in 28 mi East 12.7 mph - -   Scattered Clouds
8:00 PM 82.4 °F 88.2 °F 73.4 °F 74% 29.95 in 6.2 mi East 12.7 mph - N/A   Partly Cloudy
9:00 PM 82.4 °F 89.5 °F 75.2 °F 79% 29.95 in 6.2 mi ENE 9.2 mph - N/A   Partly Cloudy
10:00 PM 80.6 °F 85.4 °F 73.4 °F 79% 29.95 in 6.2 mi East 11.5 mph - N/A   Partly Cloudy
11:00 PM 80 °F - 72 °F 72% 29.97 in 9 mi East 12.7 mph - - Rain Light Rain Showers
11:00 PM 78.8 °F - 71.6 °F 78% 29.95 in 6.2 mi East 15.0 mph 28.8 mph N/A Rain Light Rain Showers